Regional Weather Roundup
Issued by NWS

Home | Current Version | Previous Version | Text Only | Print | Product List | Glossary On
Versions: 1 2 3 4 5 6 7 8 9 10 11 12 13 14 15 16 17 18 19 20 21 22 23 24 25 26 27 28 29 30 31 32 33 34 35 36 37 38 39 40 41 42 43 44 45 46 47 48 49 50
000
ASUS43 KLSX 261807
RWRMO

WEATHER SUMMARY FOR MISSOURI
NATIONAL WEATHER SERVICE SPRINGFIELD MO
100 PM CDT THU MAY 26 2016

NOTE: "FAIR" INDICATES FEW OR NO CLOUDS BELOW 12,000 FEET WITH NO
       SIGNIFICANT WEATHER AND/OR OBSTRUCTIONS TO VISIBILITY.
       CURRENT SKY AND/OR WEATHER CONDITIONS ARE NOT AVAILABLE FOR
       CHILLICOTHE AND FARMINGTON.

MOZ001>031-035>038-043-044-053-054-261900-
...NORTHERN AND WESTERN MISSOURI...

CITY           SKY/WX    TMP DP  RH WIND       PRES   REMARKS
KANSAS CTY INT CLOUDY    73  65  75 SE10      29.85F
6HR MIN TEMP:  64; 6HR MAX TEMP:  78; 6HR PCP:  0.04;

KANSAS C DTWN  TSTM      74  68  81 VRB6      29.88R VSB 3/4
6HR MIN TEMP:  65; 6HR MAX TEMP:  76; 6HR PCP:  0.54;

LEE`S SUMMIT   CLOUDY    80  69  69 E13       29.88F
6HR MIN TEMP:  64; 6HR MAX TEMP:  81;

ST JOSEPH      TSTM      70  67  90 E3        29.84F
6HR MIN TEMP:  65; 6HR MAX TEMP:  71; 6HR PCP:  0.13;

CHILLICOTHE      N/A     76  65  68 E8        29.86F
6HR MIN TEMP:  66; 6HR MAX TEMP:  78;

KIRKSVILLE     CLOUDY    78  64  61 S3        29.91F
6HR MIN TEMP:  69; 6HR MAX TEMP:  80;


$$
MOZ066>068-077>081-088>096-101>105-261900-
...SOUTHWEST MISSOURI...

CITY           SKY/WX    TMP DP  RH WIND       PRES   REMARKS
SPRINGFIELD    MOSUNNY   85  70  60 S15       29.91F
6HR MIN TEMP:  71; 6HR MAX TEMP:  85;

JOPLIN         PTSUNNY   86  72  62 S22G28    29.89F HX  92
6HR MIN TEMP:  74; 6HR MAX TEMP:  86;

BRANSON        PTSUNNY   84  72  65 S7        29.96F

$$
MOZ032>034-039>042-045>050-055>058-069>072-261900-
...CENTRAL MISSOURI...

CITY           SKY/WX    TMP DP  RH WIND       PRES   REMARKS
COLUMBIA       SUNNY     84  68  58 SW5       29.92R
6HR MIN TEMP:  64; 6HR MAX TEMP:  84; 6HR PCP:  0.01;

JEFFERSON CITY SUNNY     83  68  60 S8        29.91R
6HR MIN TEMP:  65; 6HR MAX TEMP:  83; 6HR PCP:  0.02;

ROLLA          CLOUDY    77  69  76 SW7       29.92R
6HR MIN TEMP:  63; 6HR MAX TEMP:  78; 6HR PCP:  0.12;

SEDALIA        SUNNY     84  65  52 SW10      29.92F THUNDER
6HR MIN TEMP:  65; 6HR MAX TEMP:  84; 6HR PCP:  0.08;

WHITEMAN AFB   MOSUNNY   82  69  65 S7        29.89F
WARRENSBURG    MOSUNNY   82  68  61 CALM      29.88F

$$
MOZ051-052-059>065-261900-
...EAST CENTRAL MISSOURI...

CITY           SKY/WX    TMP DP  RH WIND       PRES   REMARKS
ST LOUIS INTL  PTSUNNY   75  64  68 SE21G30   29.94S
6HR MIN TEMP:  67; 6HR MAX TEMP:  76; 6HR PCP:  0.49;

SPIRIT OF STL  MOSUNNY  N/A N/A N/A S14       29.90F
6HR MIN TEMP:  66; 6HR MAX TEMP:  75;

ST CHARLES     CLOUDY    76  67  73 S15       29.93F
6HR MIN TEMP:  66; 6HR MAX TEMP:  79; 6HR PCP:  0.33;


$$
MOZ072>076-082>087-097>100-106>115-261900-
...SOUTH CENTRAL AND SOUTHEAST MISSOURI...

CITY           SKY/WX    TMP DP  RH WIND       PRES   REMARKS
CAPE GIRARDEAU TSTM      66  66 100 N16       30.02R VSB 1/2
6HR MIN TEMP:  67; 6HR MAX TEMP:  78; 6HR PCP:  1.65;

FARMINGTON     CLOUDY    68  66  93 SE8       29.98F
6HR MIN TEMP:  66; 6HR MAX TEMP:  70;

POPLAR BLUFF   LGT RAIN  78  73  84 S10       29.98F
6HR MIN TEMP:  68; 6HR MAX TEMP:  80; 6HR PCP: TRACE;

WEST PLAINS    PTSUNNY   84  72  67 S8        29.97F
6HR MIN TEMP:  74; 6HR MAX TEMP:  84; 6HR PCP:  0.02;


$$



USA.gov is the U.S. government's official web portal to all federal, state and local government web resources and services.